Printer-friendly version

IAU Minor Planet Center

Minor Planet Center

MPEC 2001-F05: 2001 EA16

The following Minor Planet Electronic Circular may be linked-to from your own Web pages, but must not otherwise be redistributed electronically.


Read MPEC 2001-F04 Read MPEC 2001-F06


M.P.E.C. 2001-F05                                Issued 2001 Mar. 18, 21:07 UT

     The Minor Planet Electronic Circulars contain information on unusual
         minor planets and routine data on comets.  They are published
   on behalf of Commission 20 of the International Astronomical Union by the
          Minor Planet Center, Smithsonian Astrophysical Observatory,
                          Cambridge, MA 02138, U.S.A.

             Prepared using the Tamkin Foundation Computer Network

                              MPC@CFA.HARVARD.EDU
          URL http://cfa-www.harvard.edu/iau/mpc.html  ISSN 1523-6714

                                   2001 EA16

Observations:
     K01E16A* C2001 03 04.58356 13 42 46.20 -05 30 08.8          19.1        608
     K01E16A  C2001 03 04.59353 13 42 45.45 -05 30 14.2          19.7        608
     K01E16A  C2001 03 04.60456 13 42 44.54 -05 30 23.2          20.0        608
     K01E16A  C2001 03 05.48188 13 41 34.45 -05 42 02.0          19.2        608
     K01E16A  C2001 03 05.49306 13 41 33.55 -05 42 10.7          20.1        608
     K01E16A  C2001 03 05.50415 13 41 32.56 -05 42 19.8          20.2        608
     K01E16A  C2001 03 05.57519 13 41 26.41 -05 43 16.4          19.1        608
     K01E16A  C2001 03 05.58515 13 41 25.56 -05 43 24.7          19.4        608
     K01E16A  C2001 03 05.59520 13 41 24.71 -05 43 32.4          19.2        608
     K01E16A 1C2001 03 13.68106 13 27 43.31 -07 37 01.5          18.3 R      413
     K01E16A 1C2001 03 13.68265 13 27 43.13 -07 37 03.0          18.4 R      413
     K01E16A 1C2001 03 13.68423 13 27 42.91 -07 37 04.5          18.4 R      413
     K01E16A  C2001 03 15.09455 13 24 46.93 -07 58 16.8                      557
     K01E16A  C2001 03 15.09648 13 24 46.62 -07 58 19.0                      557
     K01E16A  C2001 03 15.10035 13 24 46.15 -07 58 22.2                      557
     K01E16A  C2001 03 15.10228 13 24 45.88 -07 58 23.8                      557
     K01E16A IC2001 03 15.48574 13 23 56.95 -08 03 57.3                      422
     K01E16A IC2001 03 15.48655 13 23 56.82 -08 03 58.1                      422
     K01E16A WC2001 03 15.95666 13 22 54.80 -08 11 17.7                      557
     K01E16A WC2001 03 15.95825 13 22 54.29 -08 11 16.4                      557
     K01E16A  C2001 03 16.30259 13 22 08.50 -08 16 30.7          19.1 R      918
     K01E16A  C2001 03 16.30525 13 22 08.15 -08 16 33.3          19.1 R      918
     K01E16A  C2001 03 16.30840 13 22 07.68 -08 16 37.6          18.7 R      918
     K01E16A  C2001 03 16.92019 13 20 44.61 -08 25 57.0          17.7 R      046
     K01E16A  C2001 03 16.92194 13 20 44.34 -08 25 58.9                      046
     K01E16A  C2001 03 16.92299 13 20 44.20 -08 25 59.5                      046
     K01E16A  C2001 03 16.92409 13 20 44.11 -08 26 00.4                      046
     K01E16A  C2001 03 16.92549 13 20 43.85 -08 26 01.4          17.8 R      046
     K01E16A  C2001 03 17.04249 13 20 27.40 -08 27 49.6                      118
     K01E16A  C2001 03 17.04821 13 20 26.59 -08 27 54.8                      118
     K01E16A  C2001 03 17.04929 13 20 26.38 -08 27 55.5          18   R      118
     K01E16A  C2001 03 17.17267 13 20 09.37 -08 29 39.4          19.5 V      859
     K01E16A  C2001 03 17.17503 13 20 09.10 -08 29 40.6          19.9 V      859
     K01E16A  C2001 03 17.17736 13 20 08.76 -08 29 42.6          19.4 V      859
     K01E16A  C2001 03 17.17968 13 20 08.40 -08 29 45.9          19.2 V      859
     K01E16A 4C2001 03 17.43058 13 19 33.38 -08 33 43.2                      673
     K01E16A 4C2001 03 17.43509 13 19 32.73 -08 33 47.5                      673
     K01E16A 4C2001 03 18.28580 13 17 32.03 -08 46 57.3                      673
     K01E16A 4C2001 03 18.29481 13 17 30.71 -08 47 06.1                      673
     K01E16A  C2001 03 18.57278 13 16 50.07 -08 51 11.4          18.0 R      474
     K01E16A  C2001 03 18.57520 13 16 49.71 -08 51 13.5          17.9 R      474
     K01E16A  C2001 03 18.57855 13 16 49.21 -08 51 16.8          18.1 R      474
     K01E16A  C2001 03 18.60061 13 16 45.50 -08 51 49.9          19.6        608
     K01E16A  C2001 03 18.60643 13 16 44.64 -08 51 55.1          19.9        608
     K01E16A  C2001 03 18.61199 13 16 43.79 -08 52 00.2          19.5        608
     K01E16A  C2001 03 18.61782 13 16 42.96 -08 52 05.8          19.8        608
     K01E16A  C2001 03 18.62304 13 16 42.15 -08 52 10.2          19.8        608
     K01E16A  C2001 03 18.62872 13 16 41.32 -08 52 15.9          19.9        608

Observer details:
046 Klet.  Observers J. Ticha, M. Tichy.  0.57-m f/5.2 reflector + CCD.
118 Modra.  Observers A. Galad, J. Toth.  0.6-m f/5.5 reflector + CCD.
413 Siding Spring.  Observer R. H. McNaught.  1.0-m f/8 reflector + CCD.
422 Loomberah.  Observer G. J. Garradd.  0.45-m f/5.4 reflector + CCD.
474 Mount John Observatory, Lake Tekapo.  Observer A. C. Gilmore.  1.0-m f/7.7
    reflector + CCD.
557 Ondrejov.  Observer L. Sarounova.  0.65-m f/3.6 reflector + CCD.
608 Haleakala-NEAT/MSSS.  Observers E. F. Helin, S. Pravdo, K. Lawrence,
    P. Kervin, R. Maeda, M. Skinner.  1.2-m reflector + CCD.
673 Table Mountain Observatory, Wrightwood.  Observers M. Hicks, A. Esqueda,
    T. Ha.  0.6-m reflector + CCD.
859 Wykrota Observatory-CEAMIG.  Observers C. Jacques, A. Campos, L. Duczmal,
    C. Magno.  0.3-m f/3.3 Schmidt-Cassegrain + CCD.
918 Badlands Observatory, Quinn.  Observer R. Dyvig.  0.66-m f/4.8 reflector
    + CCD.

Orbital elements:
2001 EA16
Epoch 2001 Mar. 12.0 TT = JDT 2451980.5                 Williams
M 263.12001              (2000.0)            P               Q
n   0.52949130     Peri.  317.10272     +0.80003071     +0.59334295
a   1.5132017      Node     8.12464     -0.21555457     +0.42247811
e   0.4293554      Incl.   38.95508     -0.55989918     +0.68516888
P   1.86           H   17.0           G   0.15
From 44 observations 2001 Mar. 4-18.

Ephemeris:
2001 EA16                a,e,i = 1.51, 0.43, 39                  q = 0.8635
Date    TT    R. A. (2000) Decl.     Delta      r     Elong.  Phase     V
2001 03 12    13 31.00   -07 12.5    0.904    1.823   147.7    16.9    19.0
2001 03 17    13 20.56   -08 27.0    0.851    1.801   154.7    13.7    18.7
2001 03 22    13 08.00   -09 45.3    0.804    1.778   161.9    10.0    18.4
2001 03 27    12 53.41   -11 05.9    0.765    1.754   168.7     6.4    18.1
2001 04 01    12 37.05   -12 26.8    0.735    1.730   172.0     4.6    17.9
2001 04 06    12 19.39   -13 45.4    0.714    1.705   167.6     7.2    18.0
2001 04 11    12 01.06   -14 59.2    0.702    1.679   160.0    11.8    18.1
2001 04 16    11 42.76   -16 06.0    0.699    1.652   151.6    16.8    18.2
2001 04 21    11 25.24   -17 04.9    0.704    1.625   143.4    21.7    18.3
2001 04 26    11 09.10   -17 56.3    0.716    1.597   135.4    26.3    18.5
2001 05 01    10 54.75   -18 41.7    0.734    1.569   127.8    30.5    18.6
2001 05 06    10 42.40   -19 22.9    0.756    1.540   120.8    34.2    18.8
2001 05 11    10 32.07   -20 01.9    0.781    1.510   114.3    37.5    18.9
2001 05 16    10 23.69   -20 40.4    0.807    1.480   108.4    40.4    19.0
2001 05 21    10 17.12   -21 19.7    0.834    1.449   102.9    42.9    19.1
2001 05 26    10 12.19   -22 01.3    0.861    1.417    97.9    45.1    19.2
2001 05 31    10 08.70   -22 45.9    0.887    1.385    93.3    46.9    19.2
2001 06 05    10 06.47   -23 34.3    0.910    1.353    89.1    48.6    19.3
2001 06 10    10 05.32   -24 26.8    0.931    1.320    85.3    50.0    19.3
2001 06 15    10 05.12   -25 23.6    0.949    1.287    81.8    51.4    19.3
2001 06 20    10 05.76   -26 25.0    0.964    1.254    78.6    52.6    19.3
2001 06 25    10 07.12   -27 31.3    0.974    1.221    75.6    53.8    19.3
2001 06 30    10 09.12   -28 42.6    0.980    1.188    73.0    54.9    19.3
2001 07 05    10 11.67   -29 58.8    0.982    1.155    70.6    56.1    19.3
2001 07 10    10 14.71   -31 20.0    0.979    1.122    68.4    57.4    19.3
2001 07 15    10 18.22   -32 46.0    0.970    1.090    66.5    58.8    19.2
2001 07 20    10 22.18   -34 16.9    0.957    1.059    64.8    60.3    19.2
2001 07 25    10 26.57   -35 52.7    0.938    1.029    63.4    62.0    19.1
2001 07 30    10 31.40   -37 33.2    0.914    1.000    62.2    63.9    19.1
2001 08 04    10 36.72   -39 17.9    0.884    0.973    61.2    66.0    19.0
2001 08 09    10 42.60   -41 06.6    0.848    0.948    60.5    68.4    18.9

Gareth V. Williams           (C) Copyright 2001 MPC           M.P.E.C. 2001-F05

Read MPEC 2001-F04 Read MPEC 2001-F06


Our Web policy. Index to the CBAT/MPC/ICQ pages.


Valid HTML 4.01!